sat.trackr.live / text

‹ back to catalog

STARLINK-34644

NORAD 64812 · 2025-150Y

PAYLOAD ACTIVE UNKNOWN

§ Identity

Operator
Country
US
Launch date
2025-07-16
Launch site
AFWTR
Launch vehicle
Mass (kg)
RCS (m²)

Purposes: comms

External: N2YO · Heavens-Above · Gunter

§ Orbital elements

Epoch: 2026-05-24T17:26:39.312960Z

Period
96.11 min
Inclination
70.0007°
Eccentricity
0.0002679
Mean motion
14.98349842 rev/d
Perigee alt
570.1 km
Apogee alt
573.9 km
Semi-major
6,950.1 km
B*
6.1970e-4
RAAN
302.7999°
Arg perigee
270.2832°
Mean anomaly
89.8020°
Rev number
4,790

§ Raw data

STARLINK-346441 64812U 25150Y   26144.72684390  .00007313  00000+0  61970-3 0  99992 64812  70.0007 302.7999 0002679 270.2832  89.8020 14.98349842 47903

JSON: /api/v1/satellites/64812 · /tle

For live sub-satellite position, see the globe view (requires WebGL).

§ Visibility from observer

Set your observer location to see the next 7 days of passes ≥ 10°. The values pass through the URL so the page stays shareable.

No JS? Fill the form by hand. The geolocation button needs JavaScript.